Barksdale AFB, LA

7:19 PM CDT on April 25, 2018 (GMT -0500)
Barksdale Air Force Base

Weather History for KBAD - April, 2013

Change the Weather History Date:

Friday, April 12, 2013

  Actual Average Record
Temperature  
Mean Temperature 58 °F -  
Max Temperature 76 °F 73 °F 81 °F (2014)
Min Temperature 39 °F 52 °F 39 °F (1997)
Degree Days  
Heating Degree Days 8    
Growing Degree Days 8 (Base 50)    
Moisture  
Dew Point 43 °F    
Average Humidity 69    
Maximum Humidity 100    
Minimum Humidity 30    
Precipitation  
Precipitation 0.00 in - - ()
Sea Level Pressure  
Sea Level Pressure 29.94 in    
Wind  
Wind Speed 2 mph (ESE)    
Max Wind Speed 10 mph    
Max Gust Speed -    
Visibility 8 miles    
Events      
Averages and records for this station are not official NWS values.
T = Trace of Precipitation, MM = Missing Value Source: NWS Daily Summary

Daily Weather History Graph

Daily Weather History Graph

Search for Another Location

Airport or City:

Astronomy

Apr. 12, 2013 Rise Set
Actual Time 6:48 AM CDT 7:42 PM CDT
Civil Twilight 6:23 AM CDT 8:07 PM CDT
Nautical Twilight 5:53 AM CDT 8:37 PM CDT
Astronomical Twilight 5:23 AM CDT 9:08 PM CDT
Moon 8:06 AM CDT (4/12) 10:05 PM CDT (4/12)
Length of Visible Light 13h 44m
Length of Day
12h 53m
Waxing Crescent, 5% of the Moon is Illuminated
Apr 12
Waxing Crescent
Apr 18
First Quarter
Apr 25
Full
May 2
Last Quarter
May 9
New

Hourly Weather History & Observations

Time (CDT) Temp. Dew Point Humidity Pressure Visibility Wind Dir Wind Speed Gust Speed Precip Events Conditions
12:58 AM 45.9 °F 41.5 °F 85% 29.90 in 10.0 mi NNE 2.3 mph - N/A   Clear
1:58 AM 43.9 °F 43.2 °F 97% 29.90 in 10.0 mi Calm Calm - N/A   Clear
2:58 AM 42.4 °F 42.1 °F 99% 29.89 in 10.0 mi Calm Calm - N/A   Clear
3:58 AM 43.5 °F 43.3 °F 99% 29.91 in 10.0 mi Calm Calm - N/A   Clear
4:58 AM 39.9 °F 39.7 °F 99% 29.92 in 10.0 mi Calm Calm - N/A   Clear
5:18 AM 39.2 °F 39.2 °F 100% 29.92 in 5.0 mi Calm Calm - N/A   Clear
5:28 AM 41.0 °F 41.0 °F 100% 29.92 in 9.0 mi SE 2.3 mph - N/A   Clear
5:38 AM 39.2 °F 39.2 °F 100% 29.92 in 10.0 mi Calm Calm - N/A   Clear
5:58 AM 39.0 °F 38.8 °F 99% 29.94 in 10.0 mi Calm Calm - N/A   Clear
6:08 AM 39.2 °F 39.2 °F 100% 29.93 in 5.0 mi Calm Calm - N/A   Clear
6:18 AM 39.2 °F 39.2 °F 100% 29.93 in 10.0 mi Calm Calm - N/A   Clear
6:28 AM 39.2 °F 39.2 °F 100% 29.93 in 7.0 mi Calm Calm - N/A   Clear
6:38 AM 39.2 °F 39.2 °F 100% 29.94 in 4.0 mi Calm Calm - N/A   Clear
6:58 AM 39.2 °F 39.0 °F 99% 29.95 in 9.0 mi Calm Calm - N/A   Clear
7:56 AM 44.6 °F 44.6 °F 100% 29.97 in 10.0 mi South 2.3 mph - N/A   Clear
8:58 AM 51.4 °F 46.4 °F 83% 30.00 in 10.0 mi SSE 4.6 mph - N/A   Clear
9:58 AM 57.6 °F 45.1 °F 63% 30.02 in 10.0 mi Calm Calm - N/A   Clear
10:58 AM 61.7 °F 41.5 °F 48% 30.03 in 10.0 mi SW 2.3 mph - N/A   Clear
11:58 AM 66.2 °F 38.1 °F 36% 30.02 in 10.0 mi Variable 3.5 mph - N/A   Clear
12:58 PM 68.9 °F 40.1 °F 35% 30.00 in 10.0 mi West 8.1 mph - N/A   Clear
1:58 PM 71.6 °F 39.4 °F 31% 29.99 in 10.0 mi WNW 10.4 mph - N/A   Clear
2:58 PM 73.2 °F 40.1 °F 30% 29.96 in 10.0 mi West 9.2 mph - N/A   Clear
3:58 PM 75.0 °F 41.4 °F 30% 29.94 in 10.0 mi Variable 2.3 mph - N/A   Clear
4:58 PM 76.3 °F 43.3 °F 31% 29.92 in 10.0 mi NE 4.6 mph - N/A   Clear
5:58 PM 76.3 °F 44.6 °F 32% 29.92 in 8.0 mi ENE 2.3 mph - N/A   Clear
6:08 PM 75.2 °F 44.6 °F 34% 29.91 in 2.5 mi East 4.6 mph - N/A   Haze
6:18 PM 73.4 °F 44.6 °F 36% 29.91 in 1.8 mi East 3.5 mph - N/A   Haze
6:28 PM 73.4 °F 46.4 °F 38% 29.91 in 2.0 mi East 2.3 mph - N/A   Haze
6:38 PM 73.4 °F 44.6 °F 36% 29.91 in 3.0 mi East 2.3 mph - N/A   Haze
6:58 PM 73.0 °F 46.8 °F 39% 29.92 in 10.0 mi Calm Calm - N/A   Clear
7:58 PM 66.0 °F 48.4 °F 53% 29.91 in 10.0 mi SE 4.6 mph - N/A   Clear
8:58 PM 59.9 °F 49.6 °F 69% 29.95 in 10.0 mi SSE 4.6 mph - N/A   Clear
9:58 PM 59.4 °F 48.7 °F 68% 29.97 in 10.0 mi SE 3.5 mph - N/A   Clear
10:58 PM 56.5 °F 49.5 °F 77% 29.98 in 10.0 mi SSE 3.5 mph - N/A   Clear
11:58 PM 53.4 °F 48.9 °F 85% 29.99 in 10.0 mi ESE 2.3 mph - N/A   Clear